Regional Weather Roundup
Issued by NWS

Home | Current Version | Previous Version | Text Only | Print | Product List | Glossary On
Versions: 1 2 3 4 5 6 7 8 9 10 11 12 13 14 15 16 17 18 19 20 21 22 23 24 25 26 27 28 29 30 31 32 33 34 35 36 37 38 39 40 41 42 43 44 45 46 47 48 49 50
000
ASUS43 KLMK 281402
RWRKY
KENTUCKY REGIONAL WEATHER ROUNDUP
NATIONAL WEATHER SERVICE LOUISVILLE KY
1000 AM EDT FRI APR 28 2017

NOTE "FAIR" INDICATES FEW OR NO CLOUDS BELOW 12,000 FEET
WITH NO SIGNIFICANT WEATHER AND/OR OBSTRUCTIONS TO VISIBILITY.

KYZ001>023-026-027-061>063-070>075-281500-
WESTERN AND SOUTH CENTRAL KENTUCKY

CITY           SKY/WX    TMP DP  RH WIND       PRES   REMARKS
PADUCAH        CLOUDY    59  53  80 SE12      29.86F
HENDERSON      MOSUNNY   56  50  80 E12       29.91F
OWENSBORO      CLOUDY    57  50  77 E10       29.94F
HOPKINSVILLE   CLOUDY    60  54  80 E6        29.92R
BOWLING GREEN  CLOUDY    60  55  83 CALM      29.97R
GLASGOW        NOT AVBL
$$

KYZ024-025-028>034-038-045-046-053-281500-
NORTH CENTRAL KENTUCKY

CITY           SKY/WX    TMP DP  RH WIND       PRES   REMARKS
LOUISVILLE/SDF CLOUDY    59  50  72 SE10      29.97F
LOUISVILLE/LOU CLOUDY    60  51  72 VRB7      29.98F
FORT KNOX      PTSUNNY   54  50  86 E7        29.94S
$$

KYZ035>037-039>044-047>052-055>060-089>105-281500-
NORTHEAST KENTUCKY

CITY           SKY/WX    TMP DP  RH WIND       PRES   REMARKS
LEXINGTON      MOSUNNY   62  49  62 SE12      30.00F
COVINGTON      CLOUDY    54  47  77 SE9       30.01F
FRANKFORT      MOSUNNY   61  50  67 E8        29.98F
$$

KYZ054-064>069-076>088-106>120-281500-
SOUTHEAST KENTUCKY

CITY           SKY/WX    TMP DP  RH WIND       PRES   REMARKS
JACKSON        SUNNY     63  53  70 VRB3      30.03S
LONDON         MOSUNNY   64  53  67 SE5       30.02R
SOMERSET       MOSUNNY   61  52  72 SE3       30.02F
MIDDLESBORO    MOSUNNY   60  59  98 CALM      30.05S
MONTICELLO     MOSUNNY   64  56  75 E5        30.01F
$$





USA.gov is the U.S. government's official web portal to all federal, state and local government web resources and services.